Location: Blandford
(50.8667°N, 2.1667°W)
Time: 13:48:00
(UTC+00:00)

STARLINK-1227 - Pass Details

Date: 09 April 2020
Orbit: 375 x 384 km, 53.0° (Epoch: 26 May)

Event Time Altitude Azimuth Distance (km) Brightness Sun altitude
Rises 19:45:37 0° 289° (WNW) 2,269 9.2 -8.4°
Reaches altitude 10° 19:47:42 10° 285° (WNW) 1,414 7.3 -8.7°
Maximum altitude 19:50:47 53° 207° (SSW) 484 3.4 -9.1°
Enters shadow 19:53:24 13° 132° (SE) 1,227 4.8 -9.5°
